Regional Weather Roundup
Issued by NWS

Home | Current Version | Previous Version | Graphics & Text | Print | Product List | Glossary Off
Versions: 1 2 3 4 5 6 7 8 9 10 11 12 13 14 15 16 17 18 19 20 21 22 23 24 25 26 27 28 29 30 31 32 33 34 35 36 37 38 39 40 41 42 43 44 45 46 47 48 49 50

000
ASUS43 KFSD 040810
RWRSD

WEATHER ROUNDUP FOR SOUTH DAKOTA
NATIONAL WEATHER SERVICE SIOUX FALLS SD
300 AM CDT FRI SEP 04 2015

NOTE: "FAIR" INDICATES FEW OR NO CLOUDS BELOW 12,000 FEET WITH NO
SIGNIFICANT WEATHER AND/OR OBSTRUCTIONS TO VISIBILITY.


SDZ001>005-009-010-012>017-040900-
NORTHWEST AND NORTH CENTRAL SOUTH DAKOTA

CITY           SKY/WX    TMP DP  RH WIND       PRES   REMARKS
BUFFALO          N/A     66  55  67 NW9       29.67F
MOBRIDGE       CLOUDY    72  72 100 E9        29.69S
$$

SDZ012>016-024>037-041>051-057-063-072>074-040900-
SOUTHWEST AND SOUTH CENTRAL SOUTH DAKOTA

CITY           SKY/WX    TMP DP  RH WIND       PRES   REMARKS
RAPID CTY ARPT CLOUDY    72  52  49 S8        29.78R
PIERRE         MOCLDY    72  69  90 CALM      29.67F
CUSTER         CLOUDY    67  45  45 E3        29.93S
PHILIP         CLOUDY    77  54  44 S12       29.73R
PINE RIDGE     CLOUDY    66  59  78 NE6       29.82F
WINNER         FAIR      78  66  66 S13       29.72R
$$

SDZ004>011-016>023-039-040-040900-
NORTHEAST SOUTH DAKOTA

CITY           SKY/WX    TMP DP  RH WIND       PRES   REMARKS
ABERDEEN       PTCLDY    73  70  90 E8        29.72F
WATERTOWN      PTCLDY    75  71  87 SE10      29.79S
BROOKINGS      MOCLDY    73  70  88 SE12      29.82S
SISSETON         N/A     74  73  97 S6        29.77F
$$

SDZ017-020-022-023-036>040-048>070-040900-
SOUTHEAST SOUTH DAKOTA

CITY           SKY/WX    TMP DP  RH WIND       PRES   REMARKS
SIOUX FALLS    PTCLDY    76  69  79 S12       29.80F
HURON          PTCLDY    75  70  84 SE12      29.71S
CHAMBERLAIN    CLOUDY    73  71  93 SE8       29.70F
MITCHELL       PTCLDY    75  70  84 SE9       29.73F
YANKTON        PTCLDY    75  66  73 S8        29.76F
$$

ABBREVIATIONS USED IN REMARKS
   TC - TEMPERATURE IN CELSIUS
  WCI - WIND CHILL INDEX
   HX - HEAT INDEX
  VSB - VISIBILITY



USA.gov is the U.S. government's official web portal to all federal, state and local government web resources and services.